Change the Weather History Date:

Wednesday, April 10, 2013

  Actual Average Record
Temperature  
Mean Temperature 29 °F 44 °F  
Max Temperature 30 °F 56 °F 83 °F (1977)
Min Temperature 28 °F 32 °F 18 °F (1989)
Degree Days  
Heating Degree Days 36 21  
Month to date heating degree days 262 230  
Since 1 July heating degree days 7034 7075  
Cooling Degree Days 0 0  
Month to date cooling degree days 0 0  
Year to date cooling degree days 0 0  
Moisture  
Dew Point 28 °F    
Average Humidity 92    
Maximum Humidity 100    
Minimum Humidity 80    
Precipitation  
Precipitation 0.38 in 0.10 in 1.72 in (1929)
Month to date precipitation 1.95 0.92  
Year to date precipitation 4.18 3.84  
Snow  
Snow 2.80 in 0.10 in 10.00 in (1929)
Month to date snowfall 4.0 1.9  
Since 1 July snowfall 31.0 41.8  
Snow Depth 3.00 in    
Sea Level Pressure  
Sea Level Pressure 29.99 in    
Wind  
Wind Speed 12 mph (NE)    
Max Wind Speed 29 mph    
Max Gust Speed 35 mph    
Visibility 3 miles    
Events Fog , Rain , Snow , Thunderstorm    
T = Trace of Precipitation, MM = Missing Value Source: NWS Daily Summary

Daily Weather History Graph

Daily Weather History Graph

Search for Another Location

Airport or City:

Trip Planner

Search our weather history database for the weather conditions in past years. The results will help you decide how hot, cold, wet, or windy it might be!

Date:

Astronomy

Apr. 10, 2013 Rise Set
Actual Time 6:52 AM CDT 8:04 PM CDT
Civil Twilight 6:22 AM CDT 8:34 PM CDT
Nautical Twilight 5:47 AM CDT 9:09 PM CDT
Astronomical Twilight 5:10 AM CDT 9:47 PM CDT
Moon 6:48 AM CDT (4/10) 8:43 PM CDT (4/10)
Length of Visible Light 14h 11m
Length of Day
13h 12m
New Moon, 0% of the Moon is Illuminated
Apr 10
New Moon
Apr 18
First Quarter
Apr 25
Full
May 2
Last Quarter
May 9
New

Hourly Weather History & Observations

Time (CDT) Temp. Windchill Dew Point Humidity Pressure Visibility Wind Dir Wind Speed Gust Speed Precip Events Conditions
12:07 AM - - - N/A% 30.05 in - North - - N/A   Unknown
12:30 AM - - - N/A% 30.06 in - North - - N/A Thunderstorm Unknown
12:56 AM - - - N/A% 30.09 in - North - - N/A   Unknown
1:32 AM - - - N/A% 30.08 in - North - - N/A Thunderstorm Unknown
1:56 AM - - - N/A% 30.04 in - North - - N/A Thunderstorm Unknown
2:07 AM - - - N/A% 30.05 in - North - - N/A Thunderstorm Unknown
2:40 AM - - - N/A% 30.06 in - North - - N/A   Unknown
2:56 AM - - - N/A% 30.04 in - North - - N/A   Unknown
3:56 AM - - - N/A% 29.97 in - North - - N/A   Unknown
4:47 AM 28.4 °F 15.1 °F 23.0 °F 80% 30.00 in 10.0 mi NE 20.7 mph - N/A   Overcast
4:56 AM 28.9 °F 19.8 °F 28.0 °F 96% 30.07 in 10.0 mi East 10.4 mph 16.1 mph N/A   Overcast
5:47 AM 28.4 °F 18.5 °F 26.6 °F 93% 29.98 in 4.0 mi East 11.5 mph 24.2 mph N/A   Light Freezing Drizzle
5:56 AM 28.0 °F 18.6 °F 25.0 °F 88% 30.04 in 3.0 mi East 10.4 mph 23.0 mph N/A   Light Freezing Drizzle
6:26 AM 28.4 °F 20.4 °F 24.8 °F 86% 30.00 in 5.0 mi East 8.1 mph - N/A   Light Freezing Drizzle
6:56 AM 30.2 °F 21.3 °F 28.4 °F 93% 30.00 in 5.0 mi East 10.4 mph - N/A   Light Freezing Drizzle
7:42 AM 30.2 °F 18.1 °F 26.6 °F 86% 29.95 in 5.0 mi NE 18.4 mph 34.5 mph 0.00 in   Light Freezing Drizzle
7:52 AM 30.2 °F 17.4 °F 26.6 °F 86% 29.97 in 7.0 mi NE 20.7 mph 32.2 mph 0.00 in   Overcast
7:56 AM 30.0 °F 18.3 °F 26.1 °F 85% 30.04 in 8.0 mi NE 17.3 mph 32.2 mph 0.00 in   Overcast
8:56 AM 30.0 °F 21.1 °F 26.1 °F 85% 30.09 in 10.0 mi NNE 10.4 mph - N/A   Overcast
9:05 AM 30.2 °F 20.8 °F 26.6 °F 86% 30.04 in 3.0 mi NE 11.5 mph - 0.00 in Rain Light Freezing Rain
9:11 AM 30.2 °F 20.8 °F 26.6 °F 86% 30.02 in 2.0 mi NE 11.5 mph - 0.01 in Rain Light Freezing Rain
9:17 AM 30.2 °F 19.8 °F 26.6 °F 86% 30.02 in 1.5 mi NNE 13.8 mph - 0.02 in Rain Light Freezing Rain
9:35 AM 30.2 °F 20.8 °F 28.4 °F 93% 30.03 in 1.8 mi NE 11.5 mph - 0.03 in Rain Light Freezing Rain
9:53 AM 30.2 °F 21.3 °F 28.4 °F 93% 30.04 in 1.8 mi NNE 10.4 mph - 0.04 in Snow Light Freezing Drizzle
9:56 AM 30.0 °F 20.5 °F 28.0 °F 92% 30.09 in 1.8 mi NNE 11.5 mph - 0.04 in Snow Light Freezing Drizzle
10:36 AM 30.2 °F 19.3 °F 28.4 °F 93% 30.03 in 2.0 mi NE 15.0 mph 21.9 mph 0.01 in   Light Freezing Drizzle
10:56 AM 30.0 °F 18.7 °F 28.0 °F 92% 30.07 in 3.0 mi NE 16.1 mph - 0.01 in   Light Freezing Drizzle
11:20 AM 30.2 °F 18.9 °F 28.4 °F 93% 30.02 in 4.0 mi NE 16.1 mph - 0.00 in   Light Freezing Drizzle
11:48 AM 30.2 °F 19.8 °F 26.6 °F 86% 30.02 in 7.0 mi NE 13.8 mph 20.7 mph 0.00 in   Light Ice Pellets
11:56 AM 30.0 °F 20.0 °F 28.0 °F 92% 30.07 in 8.0 mi NE 12.7 mph - 0.00 in   Light Ice Pellets
11:59 AM 30.2 °F 19.8 °F 28.4 °F 93% 30.02 in 4.0 mi NNE 13.8 mph - 0.00 in Rain Light Freezing Rain
12:13 PM 30.2 °F 18.9 °F 26.6 °F 86% 30.02 in 2.0 mi NNE 16.1 mph - 0.00 in Snow Light Snow
12:20 PM 30.2 °F 19.8 °F 28.4 °F 93% 30.02 in 1.5 mi NNE 13.8 mph - 0.01 in Snow Light Snow
12:32 PM 30.2 °F 21.9 °F 28.4 °F 93% 30.04 in 0.8 mi NNE 9.2 mph 20.7 mph 0.01 in Snow Light Snow
12:48 PM 30.2 °F 19.8 °F 28.4 °F 93% 30.03 in 0.5 mi NNE 13.8 mph - 0.02 in Snow Light Snow
12:56 PM 30.0 °F 19.5 °F 28.0 °F 92% 30.03 in 0.5 mi NE 13.8 mph - 0.02 in Snow Light Snow
1:22 PM 30.2 °F 20.2 °F 28.4 °F 93% 30.02 in 2.0 mi NE 12.7 mph - 0.01 in Snow Light Snow
1:26 PM 30.2 °F 20.2 °F 28.4 °F 93% 30.02 in 3.0 mi NE 12.7 mph - 0.01 in Snow Light Snow
1:33 PM 30.2 °F 21.9 °F 28.4 °F 93% 30.02 in 2.5 mi NE 9.2 mph - 0.01 in Snow Light Snow
1:53 PM 30.2 °F 19.8 °F 28.4 °F 93% 30.03 in 2.5 mi NE 13.8 mph - 0.01 in Snow Light Snow
1:56 PM 30.0 °F 19.5 °F 28.0 °F 92% 30.03 in 2.5 mi NE 13.8 mph - 0.01 in Snow Light Snow
2:24 PM 30.2 °F 18.9 °F 28.4 °F 93% 29.99 in 2.5 mi NE 16.1 mph - 0.00 in Snow Light Snow
2:34 PM 30.2 °F 19.3 °F 28.4 °F 93% 29.98 in 4.0 mi NE 15.0 mph - 0.00 in Snow Light Snow
2:56 PM 30.0 °F 18.7 °F 28.0 °F 92% 29.98 in 4.0 mi NE 16.1 mph 24.2 mph 0.00 in Snow Light Snow
3:17 PM 30.2 °F 21.3 °F 28.4 °F 93% 30.00 in 7.0 mi NE 10.4 mph - 0.00 in Snow Light Snow
3:21 PM 30.2 °F 20.2 °F 28.4 °F 93% 29.99 in 5.0 mi NE 12.7 mph - 0.00 in Snow Light Snow
3:29 PM 30.2 °F 19.8 °F 26.6 °F 86% 29.99 in 2.0 mi NE 13.8 mph - 0.00 in Snow Light Snow
3:34 PM 30.2 °F 19.8 °F 28.4 °F 93% 29.99 in 1.5 mi NE 13.8 mph - 0.01 in Snow Light Snow
3:56 PM 30.0 °F 20.0 °F 28.0 °F 92% 29.98 in 1.0 mi NE 12.7 mph - 0.02 in Snow Light Snow
4:00 PM 30.2 °F 20.8 °F 28.4 °F 93% 29.98 in 1.0 mi NE 11.5 mph - 0.00 in Snow Light Snow
4:03 PM 30.2 °F 20.8 °F 28.4 °F 93% 29.97 in 1.0 mi NE 11.5 mph - 0.00 in Snow Light Snow
4:08 PM 30.2 °F 20.8 °F 28.4 °F 93% 29.96 in 1.0 mi NE 11.5 mph - 0.01 in Snow Light Snow
4:20 PM 30.2 °F 20.2 °F 28.4 °F 93% 29.98 in 1.0 mi NE 12.7 mph - 0.01 in Snow Light Snow
4:49 PM 30.2 °F 19.8 °F 28.4 °F 93% 29.96 in 1.0 mi NE 13.8 mph - 0.02 in Snow Light Snow
4:56 PM 30.0 °F 20.5 °F 28.0 °F 92% 30.02 in 1.5 mi NE 11.5 mph - 0.02 in Snow Light Snow
5:02 PM 30.2 °F 20.2 °F 28.4 °F 93% 29.95 in 2.0 mi NE 12.7 mph - 0.00 in Snow Light Snow
5:12 PM 30.2 °F 19.3 °F 28.4 °F 93% 29.95 in 2.0 mi NE 15.0 mph - 0.01 in Snow Light Snow
5:19 PM 30.2 °F 19.3 °F 28.4 °F 93% 29.93 in 2.0 mi NE 15.0 mph - 0.01 in Snow Light Snow
5:28 PM 30.2 °F 18.9 °F 28.4 °F 93% 29.92 in 2.0 mi NE 16.1 mph 19.6 mph 0.01 in Snow Light Snow
5:36 PM 30.2 °F 19.8 °F 28.4 °F 93% 29.93 in 2.0 mi NE 13.8 mph - 0.01 in Snow Light Snow
5:48 PM 30.2 °F 19.8 °F 28.4 °F 93% 29.94 in 2.0 mi NE 13.8 mph 20.7 mph 0.01 in Snow Light Snow
5:56 PM 30.0 °F 20.0 °F 28.0 °F 92% 29.98 in 2.0 mi NE 12.7 mph - 0.01 in Snow Light Snow
6:00 PM 30.2 °F 19.3 °F 28.4 °F 93% 29.93 in 2.0 mi NE 15.0 mph - 0.00 in Snow Light Snow
6:28 PM 30.2 °F 19.3 °F 28.4 °F 93% 29.90 in 2.0 mi NE 15.0 mph 24.2 mph 0.00 in Snow Light Snow
6:43 PM 30.2 °F 21.9 °F 28.4 °F 93% 29.91 in 9.0 mi NE 9.2 mph 19.6 mph 0.00 in Snow Light Snow
6:56 PM 30.0 °F 20.5 °F 28.0 °F 92% 29.95 in 9.0 mi NE 11.5 mph - 0.00 in Snow Light Snow
7:05 PM 30.2 °F 19.8 °F 28.4 °F 93% 29.90 in 8.0 mi NE 13.8 mph - 0.00 in Snow Light Snow
7:44 PM 30.2 °F 21.3 °F 28.4 °F 93% 29.88 in 10.0 mi NE 10.4 mph - 0.00 in   Light Freezing Drizzle
7:56 PM 30.0 °F 20.5 °F 28.0 °F 92% 29.93 in 2.5 mi NE 11.5 mph - 0.00 in   Light Freezing Drizzle
8:04 PM 30.2 °F 20.8 °F 28.4 °F 93% 29.87 in 1.8 mi NE 11.5 mph - 0.00 in   Light Freezing Drizzle
8:56 PM 30.0 °F 20.5 °F 28.9 °F 96% 29.91 in 1.5 mi NE 11.5 mph - 0.00 in Snow Light Freezing Drizzle
9:22 PM 30.2 °F 21.9 °F 28.4 °F 93% 29.85 in 1.5 mi NNE 9.2 mph - 0.00 in Snow Light Snow
9:56 PM 30.0 °F 23.2 °F 28.9 °F 96% 29.92 in 1.5 mi NNE 6.9 mph - 0.02 in Snow Light Snow
10:39 PM 30.2 °F 25.4 °F 28.4 °F 93% 29.85 in 0.8 mi NNE 4.6 mph - 0.01 in Snow Light Snow
10:41 PM 30.2 °F 25.4 °F 28.4 °F 93% 29.85 in 1.0 mi North 4.6 mph - 0.02 in Snow Light Snow
10:56 PM 30.0 °F 25.2 °F 30.0 °F 100% 29.91 in 0.5 mi North 4.6 mph - 0.04 in Fog , Snow Snow
11:33 PM 30.2 °F 23.4 °F 28.4 °F 93% 29.85 in 0.2 mi North 6.9 mph - 0.06 in Fog , Snow Heavy Snow
11:45 PM 30.2 °F 21.9 °F 28.4 °F 93% 29.84 in 0.2 mi North 9.2 mph - 0.11 in Fog , Snow Heavy Snow
11:56 PM 30.0 °F 21.7 °F 28.9 °F 96% 29.88 in 0.2 mi North 9.2 mph - 0.13 in Fog , Snow Heavy Snow